Date,TemperatureHighF,TemperatureAvgF,TemperatureLowF,DewpointHighF,DewpointAvgF,DewpointLowF,HumidityHigh,HumidityAvg,HumidityLow,PressureMaxIn,PressureMinIn,WindSpeedMaxMPH,WindSpeedAvgMPH,GustSpeedMaxMPH,PrecipitationSumIn
2013-1-2,44.0,43.0,37.0,40.4,39.2,37.0,100,86,81,29.44,29.33,2,0,2,0.21
2013-1-3,40.0,33.7,28.0,40.0,33.7,28.0,100,100,99,29.52,29.43,2,0,2,0.00
2013-1-4,48.0,35.8,25.0,31.0,24.9,19.5,100,68,38,29.58,29.45,11,1,11,0.00
2013-1-5,50.0,37.5,27.0,30.3,24.5,20.5,79,61,34,29.64,29.50,6,0,7,0.00
2013-1-6,53.0,42.6,36.0,39.0,35.1,29.3,100,76,54,29.50,29.31,5,0,5,0.01
2013-1-7,53.0,39.8,30.0,33.8,30.9,29.1,100,73,44,29.69,29.43,5,0,6,0.00
2013-1-8,58.0,39.1,25.0,40.1,33.9,25.0,100,84,50,29.73,29.62,3,0,3,0.00
2013-1-9,66.0,50.1,34.0,53.9,46.1,34.0,100,88,64,29.69,29.58,9,0,9,0.00
2013-1-10,64.0,52.8,44.0,53.0,43.9,33.7,100,74,50,29.78,29.65,6,0,6,0.00
2013-1-11,47.0,43.8,39.0,46.0,41.2,32.6,100,91,65,29.69,29.41,5,0,5,0.18
2013-1-12,74.0,57.8,47.0,67.0,53.4,43.6,100,86,68,29.41,29.34,6,0,6,0.01
2013-1-13,73.0,61.1,53.0,68.0,55.4,46.3,100,82,65,29.39,29.28,9,0,10,0.00
2013-1-14,63.0,59.3,49.0,63.0,57.0,48.2,100,93,74,29.43,29.33,10,0,10,0.51
2013-1-15,49.0,41.9,40.0,49.0,39.9,37.0,100,92,87,29.51,29.35,9,0,9,0.13
2013-1-16,48.0,42.8,39.0,43.4,39.5,36.0,91,88,82,29.35,29.22,5,0,6,0.20
2013-1-17,48.0,43.2,31.0,43.4,39.8,30.5,100,88,82,29.42,29.18,11,0,12,1.19
2013-1-18,45.0,34.2,24.0,38.7,29.8,24.0,100,86,50,29.79,29.42,8,0,8,0.38
2013-1-19,55.0,37.3,24.0,33.0,27.9,24.0,100,73,36,29.76,29.40,7,0,7,0.01
2013-1-20,60.0,47.1,36.0,35.6,30.9,27.4,79,55,36,29.40,29.24,17,1,17,0.00
2013-1-21,59.0,42.7,26.0,42.0,27.1,15.2,100,60,31,29.34,29.11,15,1,16,0.00
2013-1-22,38.0,29.3,20.0,17.1,5.0,-4.0,50,36,20,29.54,29.21,13,1,13,0.00
2013-1-23,39.0,25.8,13.0,17.8,10.2,3.0,80,53,32,29.65,29.31,10,0,10,0.00
2013-1-24,35.0,29.8,24.0,24.6,13.3,0.8,74,52,27,29.73,29.21,12,0,14,0.00
2013-2-1,25.0,22.5,21.0,8.1,6.5,4.7,57,50,43,29.65,29.60,5,0,5,0.00
2013-2-2,42.0,29.5,14.0,33.4,13.7,6.8,93,55,28,29.67,29.29,14,1,14,0.00
2013-2-3,47.0,37.4,28.0,37.0,28.4,22.0,100,73,45,29.29,29.11,17,2,17,0.00
2013-2-4,48.0,35.7,22.0,27.8,22.3,17.7,100,61,33,29.42,29.25,9,1,9,0.00
2013-2-5,59.0,45.0,36.0,35.3,31.4,27.1,81,60,38,29.25,29.13,10,1,10,0.00
2013-2-6,60.0,45.9,35.0,35.8,29.4,23.8,92,56,28,29.55,29.22,10,1,10,0.00
2013-2-7,45.0,38.5,32.0,41.0,35.5,26.3,100,90,60,29.61,29.29,7,1,7,0.69
2013-2-8,53.0,43.0,35.0,47.9,38.0,27.8,100,84,52,29.29,29.07,16,4,16,0.48
2013-2-9,52.0,37.8,26.0,28.5,21.9,15.6,97,57,25,29.62,29.29,12,2,12,0.00
2013-2-10,54.0,37.5,23.0,39.0,22.6,17.6,100,59,28,29.75,29.47,7,1,7,0.06
2013-2-11,60.0,51.7,39.0,60.0,51.0,39.0,100,98,83,29.47,29.16,12,2,12,0.09
2013-2-12,60.0,51.1,42.0,54.0,33.5,25.8,100,54,29,29.34,29.18,12,2,12,0.00
2013-2-13,51.0,43.8,39.0,45.0,41.6,29.3,100,94,44,29.21,28.89,12,1,12,0.30
2013-2-14,39.0,37.1,36.0,36.3,35.2,33.9,95,93,90,29.15,29.09,5,2,5,0.00
2013-2-21,41.0,39.8,39.0,22.4,20.9,18.9,49,47,44,29.52,29.46,5,1,5,0.00
2013-2-22,39.0,33.7,30.0,35.0,30.8,19.5,100,91,47,29.61,29.41,5,0,5,0.23
2013-2-23,41.0,37.5,33.0,41.0,37.4,33.0,100,100,97,29.41,29.08,6,0,6,0.26
2013-2-24,63.0,48.1,37.0,48.0,34.9,23.7,100,66,29,29.30,29.05,12,2,12,0.03
2013-2-25,42.0,34.9,29.0,27.1,23.9,21.0,85,65,47,29.50,29.30,8,0,8,0.00
2013-2-26,53.0,41.4,31.0,47.0,36.7,24.3,100,84,71,29.43,28.83,12,2,12,0.71
2013-2-27,59.0,47.1,40.0,46.0,38.5,33.5,100,75,41,29.05,28.89,12,3,12,0.00
2013-2-28,49.0,41.3,34.0,39.1,30.7,24.7,100,68,43,29.12,28.95,13,3,13,0.00
2013-3-1,50.0,39.1,31.0,30.5,27.5,24.0,88,64,42,29.17,29.09,12,2,12,0.00
2013-3-2,46.0,38.5,29.0,29.1,25.4,22.4,87,60,43,29.17,29.08,10,1,10,0.00
2013-3-9,57.0,48.2,37.0,29.5,27.4,26.2,74,45,31,29.60,29.49,4,2,4,0.00
2013-3-10,68.0,48.7,30.0,35.4,28.4,22.9,100,53,22,29.60,29.43,7,1,7,0.00
2013-3-11,69.0,53.9,37.0,54.8,42.1,24.5,91,66,39,29.49,29.18,12,2,12,0.00
2013-3-12,67.0,58.0,46.0,64.0,49.4,32.0,100,74,51,29.21,29.01,14,4,14,0.83
2013-3-13,54.0,43.0,31.0,35.8,27.5,19.0,100,58,31,29.39,29.21,15,4,15,0.00
2013-3-14,52.0,38.3,25.0,21.8,17.7,12.7,73,46,25,29.51,29.35,14,3,14,0.00
2013-3-15,62.0,46.2,28.0,35.9,26.0,16.1,70,46,33,29.45,29.13,14,3,14,0.00
2013-3-16,75.0,59.3,44.0,53.6,44.0,34.2,81,59,38,29.14,28.87,16,2,16,0.00
2013-3-17,60.0,56.7,53.0,54.0,52.9,51.5,100,87,77,29.15,29.07,2,0,2,0.00
2013-3-26,44.0,39.7,37.0,27.3,26.2,24.7,66,58,50,29.35,29.27,8,2,8,0.00
2013-3-27,42.0,35.6,32.0,27.2,24.8,19.6,81,66,42,29.47,29.35,9,2,9,0.00
2013-3-28,55.0,41.8,28.0,28.5,24.3,21.8,88,53,29,29.54,29.41,14,3,14,0.00
2013-3-29,62.0,44.7,27.0,31.1,25.8,22.2,93,52,26,29.59,29.41,12,2,12,0.00
2013-3-30,67.0,51.2,34.0,41.9,32.1,24.2,89,52,25,29.51,29.32,7,1,7,0.00
2013-3-31,66.0,54.2,46.0,59.4,50.5,41.8,100,88,67,29.34,29.05,12,2,12,0.60
2013-4-1,70.0,57.7,47.0,56.0,44.6,33.3,100,66,34,29.25,29.05,16,2,16,0.05
2013-4-2,58.0,46.5,32.0,34.9,25.8,18.7,92,49,23,29.44,29.25,13,2,13,0.00
2013-4-3,59.0,46.8,34.0,29.5,20.4,16.0,61,36,21,29.57,29.40,10,1,10,0.00
2013-4-4,50.0,40.0,36.0,40.0,29.2,18.7,100,69,42,29.64,29.20,12,2,12,0.74
2013-4-5,65.0,48.1,36.0,51.4,39.4,33.9,100,75,36,29.27,29.13,8,1,8,0.05
2013-4-6,67.0,52.6,43.0,37.7,30.0,19.7,70,45,23,29.54,29.27,10,1,10,0.00
2013-4-7,72.0,54.1,34.0,45.0,39.1,33.0,100,62,33,29.56,29.34,13,2,13,0.00
2013-4-8,78.0,64.2,50.0,58.7,52.0,42.9,100,68,38,29.42,29.27,10,2,10,0.00
2013-4-9,84.0,70.3,55.0,62.0,56.4,52.5,100,66,35,29.43,29.27,14,1,14,0.00
2013-4-10,87.0,72.5,58.0,63.7,58.5,55.1,100,65,36,29.35,29.16,10,1,10,0.00
2013-4-11,78.0,66.2,60.0,66.0,61.6,58.8,100,86,55,29.24,29.15,13,3,13,0.00
2013-4-12,78.0,76.3,73.0,72.1,68.0,64.8,97,77,66,28.95,28.91,4,2,4,0.76
2013-4-14,82.0,73.8,64.0,51.6,42.0,34.5,64,34,20,29.33,29.25,5,0,5,0.76
2013-4-15,71.0,61.6,54.0,61.1,56.4,50.6,100,85,58,29.47,29.29,5,1,5,0.17
2013-4-16,78.0,64.7,57.0,64.0,57.3,-29.6,100,80,8,29.56,29.43,6,0,6,0.00
2013-4-17,80.0,68.3,57.0,65.8,60.4,46.9,97,77,56,29.47,29.35,7,0,7,0.00
2013-4-18,81.0,69.1,58.0,65.9,60.2,54.5,99,76,44,29.45,29.28,10,1,10,0.00
2013-4-19,81.0,68.4,62.0,69.5,61.7,48.0,100,80,60,29.30,28.95,16,2,16,0.82
2013-4-20,66.0,53.4,40.0,58.7,38.4,29.6,100,60,31,29.53,29.05,10,2,10,0.03
2013-4-21,63.0,49.6,39.0,40.5,36.6,31.1,100,64,39,29.77,29.53,9,1,9,0.00
2013-4-22,63.0,48.3,34.0,46.9,38.4,34.0,100,72,41,29.74,29.53,9,1,9,0.01
2013-4-23,71.0,53.5,45.0,50.6,47.3,45.0,100,83,44,29.54,29.37,7,0,7,0.00
2013-4-24,75.0,61.2,46.0,59.0,52.0,40.8,100,74,51,29.41,29.20,10,2,10,0.00
2013-4-25,75.0,59.2,45.0,59.0,44.3,36.7,100,61,31,29.54,29.25,6,0,6,0.00
2013-4-26,75.0,57.3,41.0,45.0,40.0,32.8,100,60,24,29.69,29.53,6,0,6,0.00
2013-4-27,76.0,60.7,48.0,55.4,46.6,40.5,100,64,32,29.64,29.51,4,0,4,0.00
2013-4-28,58.0,54.3,51.0,57.0,51.8,45.4,100,91,76,29.52,29.35,4,0,4,0.35
2013-4-29,73.0,60.2,52.0,65.9,54.4,45.0,100,82,64,29.35,29.21,4,0,4,0.36
2013-4-30,68.0,58.5,54.0,62.6,52.0,46.1,100,79,67,29.44,29.27,6,0,6,0.01
2013-5-1,60.0,56.5,55.0,57.3,51.6,45.0,99,84,69,29.58,29.43,8,1,8,0.01
2013-5-2,61.0,55.9,51.0,60.1,53.5,44.3,100,92,69,29.60,29.52,5,0,5,0.01
2013-5-3,58.0,47.4,45.0,56.3,41.2,37.9,94,79,76,29.54,29.49,4,0,4,0.00
2013-5-21,89.0,76.4,67.0,73.8,67.4,39.9,100,76,37,29.30,29.17,4,0,4,0.00
2013-5-22,87.0,74.0,67.0,73.1,64.2,45.5,100,73,46,29.27,29.14,6,0,6,0.00
2013-5-23,82.0,70.8,63.0,73.1,60.7,45.2,100,72,46,29.22,29.06,4,0,4,0.16
2013-5-24,69.0,62.2,51.0,63.2,50.5,36.7,100,68,37,29.45,29.07,16,2,16,0.00
2013-5-25,75.0,56.9,40.0,45.4,40.5,34.5,100,60,26,29.54,29.37,9,1,9,0.00
2013-5-26,77.0,59.1,46.0,52.2,45.6,39.9,91,65,31,29.53,29.40,5,0,5,0.00
2013-5-27,82.0,65.1,47.0,59.0,53.0,43.9,100,69,35,29.55,29.40,5,0,5,0.00
2013-5-28,87.0,70.9,57.0,68.0,61.8,48.8,100,75,49,29.50,29.37,6,0,6,0.00
2013-5-29,88.0,73.0,60.0,69.4,62.8,49.1,100,74,46,29.49,29.39,6,0,6,0.00
2013-5-30,89.0,72.8,60.0,71.1,61.8,48.2,100,71,42,29.54,29.41,4,0,4,0.00
2013-5-31,89.0,74.8,63.0,74.4,64.6,49.8,100,73,44,29.49,29.34,4,0,4,0.00
2013-6-1,90.0,75.9,64.0,73.7,64.3,50.8,100,70,42,29.40,29.25,4,0,4,0.00
2013-6-2,87.0,75.3,65.0,72.0,67.3,55.8,100,79,51,29.29,29.15,9,1,9,0.40
2013-6-3,85.0,71.4,64.0,77.8,59.3,48.5,100,67,49,29.20,29.07,8,0,8,0.41
2013-6-4,80.0,68.1,62.0,68.6,58.8,46.6,100,73,55,29.36,29.20,4,0,4,0.00
2013-6-5,84.0,70.5,58.0,68.2,58.4,44.6,100,66,48,29.41,29.27,7,0,7,0.00
2013-6-6,73.0,67.9,63.0,72.0,59.0,45.5,100,76,47,29.30,29.07,7,0,7,0.44
2013-6-7,70.0,67.6,66.0,49.6,43.8,36.9,50,42,33,29.11,28.80,6,0,6,2.02
2013-6-8,86.0,71.1,62.0,72.5,53.1,31.9,100,57,28,29.35,29.06,9,0,9,0.07
2013-6-9,91.0,75.6,64.0,77.5,58.8,31.9,100,59,23,29.43,29.28,5,0,5,0.02
2013-6-10,70.0,69.2,68.0,60.7,43.2,34.5,75,41,28,29.35,29.29,4,0,4,0.02
2013-6-16,86.0,76.2,72.0,71.5,70.1,67.2,98,82,57,29.28,29.24,5,0,5,0.00
2013-6-17,86.0,75.3,68.0,76.8,71.5,68.0,100,89,65,29.29,29.17,4,0,4,0.00
2013-6-18,85.0,71.8,65.0,76.1,61.9,41.0,100,73,39,29.23,29.02,8,1,8,0.47
2013-6-19,81.0,70.4,62.0,73.8,56.3,37.1,100,64,30,29.39,29.15,7,0,7,0.00
2013-6-20,87.0,71.4,61.0,68.7,55.0,37.7,100,59,40,29.51,29.39,4,0,4,0.00
2013-6-21,87.0,69.9,54.0,66.0,57.5,46.9,100,70,31,29.54,29.44,5,0,5,0.00
2013-6-22,86.0,71.4,65.0,76.4,64.7,46.8,100,81,48,29.49,29.38,5,0,5,0.04
2013-6-23,90.0,75.8,66.0,77.1,61.0,39.6,99,62,36,29.49,29.35,4,0,4,0.02
2013-6-24,91.0,76.2,67.0,77.1,63.1,40.2,99,67,34,29.47,29.33,6,0,6,0.00
2013-6-25,93.0,77.1,66.0,76.6,65.2,39.3,100,69,34,29.38,29.24,6,0,6,0.00
2013-6-26,93.0,75.9,66.0,76.5,60.1,38.7,99,59,34,29.29,29.12,10,0,10,0.82
2013-6-27,90.0,75.3,65.0,78.5,58.9,39.7,99,59,30,29.19,28.96,9,1,9,0.58
2013-6-28,90.0,75.7,69.0,80.8,51.8,23.1,97,46,15,29.01,28.88,4,0,4,0.66
2013-6-29,86.0,78.9,69.0,78.7,67.4,30.2,99,71,23,28.99,28.90,6,0,6,0.27
2013-6-30,88.0,72.5,66.0,78.8,45.0,13.9,98,42,10,29.13,28.97,6,0,6,0.92
2013-7-1,83.0,73.5,68.0,78.4,47.5,1.1,100,51,6,29.25,29.11,7,0,7,0.98
2013-7-2,74.0,71.5,70.0,66.9,44.5,0.4,87,44,7,29.45,29.25,8,1,8,0.38
2013-7-3,87.0,75.3,71.0,99.9,38.6,-34.0,100,32,1,29.49,29.40,5,0,5,0.08
2013-7-8,89.0,84.5,80.0,76.5,75.2,73.8,89,75,61,29.38,29.35,0,0,0,0.71
2013-7-10,90.0,80.9,70.0,78.1,66.3,5.9,100,67,8,29.32,29.19,12,0,12,0.35
2013-7-11,78.0,72.0,69.0,99.9,46.3,-35.2,100,18,1,29.24,29.15,7,0,7,1.12
2013-7-12,73.0,69.6,67.0,99.9,68.6,-37.0,100,35,1,29.30,29.13,7,0,7,0.03
2013-7-13,77.0,71.0,67.0,99.9,49.5,-37.0,100,35,1,29.45,29.28,4,0,4,0.12
2013-7-14,89.0,77.0,68.0,99.9,83.3,-32.2,100,46,5,29.56,29.45,6,0,6,0.00
2013-7-15,95.0,78.5,67.0,99.9,66.3,-37.0,100,45,1,29.59,29.49,1,0,1,0.00
2013-7-16,97.0,80.0,67.0,99.9,58.2,-36.4,100,45,1,29.54,29.41,5,0,5,0.05
2013-7-17,97.0,82.5,73.0,99.9,65.1,-33.4,100,53,1,29.48,29.34,4,0,4,0.00
2013-7-18,100.0,82.1,71.0,99.9,64.2,-34.0,100,61,3,29.40,29.28,0,0,0,0.00
2013-7-19,93.0,80.2,71.0,99.9,62.6,-34.0,100,60,1,29.36,29.23,8,0,8,0.00
2013-7-20,91.0,78.1,71.0,79.1,74.3,55.5,100,89,60,29.29,29.16,6,1,6,0.00
2013-7-21,92.0,76.7,71.0,79.1,67.6,17.6,100,76,16,29.25,29.15,5,0,5,0.01
2013-7-22,90.0,76.4,69.0,99.9,54.0,-35.8,100,55,1,29.22,29.08,6,0,6,0.00
2013-7-23,89.0,78.1,71.0,78.0,69.7,54.0,100,77,56,29.11,28.98,10,2,10,0.00
2013-7-24,95.0,79.6,68.0,77.0,68.6,50.2,100,72,41,29.12,28.99,4,0,4,0.00
2013-7-25,80.0,71.1,64.0,72.1,64.6,48.4,100,81,53,29.31,29.11,4,0,4,0.12
2013-7-26,88.0,72.0,59.0,70.8,55.5,20.7,100,60,18,29.39,29.29,4,0,4,0.00
2013-7-27,86.0,71.4,63.0,75.1,53.5,14.2,100,58,15,29.33,29.21,12,0,12,0.25
2013-7-28,89.0,75.0,66.0,99.9,45.3,-36.4,100,49,1,29.26,29.17,6,0,6,0.00
2013-7-29,89.0,74.7,65.0,75.0,54.4,-34.6,100,55,2,29.42,29.25,5,0,5,0.04
2013-7-30,91.0,73.5,58.0,72.0,63.6,49.8,100,75,44,29.51,29.38,4,0,4,0.00
2013-7-31,85.0,73.2,67.0,76.0,66.7,38.8,100,82,32,29.42,29.27,7,0,7,0.24
2013-8-1,87.0,73.9,66.0,77.1,51.9,-14.6,100,57,3,29.29,29.11,7,0,7,0.65
2013-8-2,91.0,75.3,64.0,99.9,54.0,-34.6,100,53,3,29.29,29.18,5,0,5,0.03
2013-8-3,89.0,74.0,67.0,99.9,54.4,-35.8,100,58,1,29.28,29.17,6,0,6,0.09
2013-8-4,89.0,74.3,63.0,99.9,60.6,-36.4,100,46,1,29.31,29.15,6,0,5,0.00
2013-8-5,85.0,71.6,60.0,71.2,58.9,25.7,100,67,26,29.37,29.26,6,0,6,0.00
2013-8-6,83.0,71.4,63.0,74.0,63.7,34.4,100,79,32,29.34,29.26,6,1,6,0.31
2013-8-7,88.0,75.0,65.0,74.0,64.1,43.8,100,71,45,29.36,29.28,8,0,8,0.00
2013-8-8,89.0,76.9,67.0,77.4,67.0,8.5,100,75,11,29.34,29.25,5,0,5,0.00
2013-8-9,93.0,79.0,70.0,78.8,60.6,11.6,100,61,10,29.31,29.21,7,0,7,0.00
2013-8-10,93.0,76.0,71.0,79.7,62.7,6.6,100,69,10,29.36,29.28,9,0,9,0.26
2013-8-11,94.0,77.2,69.0,99.9,60.0,-35.8,100,46,1,29.38,29.27,7,0,7,0.00
2013-8-12,94.0,79.4,70.0,99.9,59.4,-35.2,100,53,1,29.32,29.19,12,0,12,0.00
2013-8-13,90.0,75.1,69.0,99.9,56.0,-21.2,100,58,2,29.25,29.04,7,1,7,0.25
2013-8-14,76.0,68.7,58.0,70.0,61.3,27.0,100,81,20,29.37,29.09,5,0,5,0.00
2013-8-15,79.0,63.9,56.0,64.0,56.0,38.6,100,78,46,29.45,29.35,9,0,9,0.00
2013-8-16,73.0,63.4,55.0,66.0,50.9,19.5,100,67,23,29.46,29.37,4,0,4,0.00
2013-8-17,69.0,63.8,59.0,69.0,51.6,0.0,100,72,7,29.46,29.39,4,0,4,0.23
2013-8-18,77.0,69.2,64.0,99.9,43.8,-37.6,100,53,1,29.47,29.38,8,1,8,0.14
2013-8-19,77.0,67.6,63.0,76.0,42.8,-5.6,100,50,6,29.47,29.35,4,0,4,0.40
2013-8-20,86.0,71.8,62.0,99.9,51.1,-40.1,100,46,1,29.45,29.37,4,0,4,0.00
2013-8-21,91.0,73.8,68.0,99.9,47.8,-35.2,100,39,1,29.49,29.36,5,0,5,0.17
2013-8-22,92.0,76.8,67.0,99.9,72.7,-37.0,100,48,1,29.40,29.23,7,0,7,0.00
2013-8-23,89.0,74.8,66.0,75.7,64.7,39.0,100,73,37,29.36,29.18,5,0,5,0.00
2013-8-24,85.0,71.2,60.0,68.0,60.3,40.1,100,72,43,29.51,29.36,6,0,6,0.00
2013-8-29,86.0,74.9,68.0,73.5,70.4,61.9,100,87,59,29.29,29.18,4,0,4,0.00
2013-8-30,91.0,74.5,63.0,73.0,56.0,-10.2,100,59,4,29.35,29.19,4,0,4,0.00
2013-8-31,91.0,75.3,65.0,76.4,60.8,-15.3,100,65,5,29.23,29.11,7,0,7,0.23
2013-9-1,92.0,74.9,68.0,99.9,49.6,-36.4,100,48,1,29.17,29.04,8,0,8,0.32
2013-9-2,90.0,76.2,65.0,99.9,50.7,-37.6,100,51,1,29.15,29.05,4,0,4,0.01
2013-9-3,91.0,77.0,69.0,99.9,55.9,-34.6,100,56,1,29.21,29.06,4,0,4,0.02
2013-9-4,90.0,72.8,62.0,71.5,59.9,27.0,100,67,21,29.36,29.20,8,0,8,0.01
2013-9-5,89.0,72.0,60.0,74.0,50.7,-13.0,100,53,5,29.38,29.28,5,0,5,0.00
2013-9-6,85.0,70.3,60.0,67.0,60.7,56.4,100,75,42,29.46,29.34,5,0,5,0.00
2013-9-7,83.0,67.9,55.0,68.0,57.3,12.2,100,72,14,29.42,29.24,5,0,5,0.00
2013-9-8,91.0,72.8,61.0,71.0,55.1,15.8,100,58,17,29.26,29.15,2,0,2,0.00
2013-9-9,92.0,75.0,64.0,74.0,61.0,3.6,100,66,12,29.41,29.26,4,0,4,0.00
2013-9-10,93.0,76.1,65.0,77.4,58.0,-0.3,100,59,7,29.50,29.37,5,0,5,0.00
2013-9-11,92.0,75.4,64.0,74.0,63.8,5.1,100,71,8,29.47,29.32,4,0,4,0.00
2013-9-12,91.0,75.4,66.0,73.8,69.7,61.7,100,85,53,29.33,29.07,7,0,7,0.00
2013-9-13,85.0,72.7,61.0,69.0,62.5,51.7,100,74,41,29.18,29.03,9,1,9,0.00
2013-9-14,80.0,63.8,54.0,57.0,52.6,47.7,100,71,38,29.43,29.18,7,1,7,0.00
2013-9-15,83.0,64.0,48.0,62.6,54.9,29.8,100,76,37,29.51,29.37,5,0,5,0.00
2013-9-16,86.0,71.1,61.0,73.0,62.3,52.2,100,77,45,29.47,29.30,9,1,9,0.00
2013-9-17,79.0,64.3,52.0,61.0,54.5,49.0,100,74,38,29.60,29.46,10,1,10,0.00
2013-9-18,80.0,59.5,47.0,56.0,47.6,30.5,100,70,29,29.60,29.43,4,0,4,0.00
2013-9-19,77.0,62.4,51.0,63.0,57.6,49.6,100,87,54,29.47,29.35,5,0,5,0.00
2013-9-20,70.0,64.6,61.0,70.0,62.8,49.1,100,94,66,29.37,29.23,4,0,4,0.15
2013-9-21,77.0,66.7,63.0,73.2,50.2,25.4,100,59,24,29.24,29.00,5,0,5,0.65
2013-9-22,80.0,66.3,57.0,65.0,47.0,17.1,100,57,18,29.18,29.00,7,1,7,0.12
2013-9-23,76.0,61.2,51.0,58.3,53.9,48.2,100,80,48,29.36,29.18,6,0,6,0.00
2013-9-24,80.0,61.8,50.0,61.9,51.9,33.5,100,72,49,29.38,29.20,4,0,4,0.00
2013-9-25,78.0,61.0,50.0,68.4,50.6,6.2,100,72,16,29.25,29.14,4,0,4,0.00
2013-9-26,79.0,64.2,56.0,65.0,55.6,40.5,100,76,43,29.32,29.16,5,0,5,0.00
2013-9-27,76.0,60.4,51.0,65.8,51.4,25.2,100,75,36,29.47,29.32,6,0,6,0.00
2013-9-28,74.0,58.7,50.0,62.5,47.7,21.5,100,69,29,29.54,29.43,7,0,7,0.00
2013-9-29,78.0,59.8,48.0,64.0,47.9,24.0,100,67,31,29.45,29.29,8,0,8,0.00
2013-9-30,82.0,60.6,48.0,65.1,50.5,25.0,100,73,33,29.37,29.25,5,0,5,0.00
2013-10-1,85.0,65.3,51.0,64.5,57.5,44.0,100,79,43,29.38,29.26,4,0,4,0.00
2013-10-2,88.0,68.2,54.0,70.9,58.0,29.9,100,74,36,29.40,29.29,5,0,5,0.00
2013-10-3,88.0,70.0,57.0,69.5,60.2,46.7,100,75,40,29.39,29.29,4,0,4,0.00
2013-10-4,90.0,70.8,59.0,72.1,62.0,43.1,100,77,41,29.39,29.29,4,0,4,0.00
2013-10-5,92.0,72.2,59.0,76.0,61.1,25.6,100,72,26,29.38,29.27,1,0,1,0.00
2013-10-6,86.0,71.5,60.0,76.1,62.7,28.5,100,77,27,29.33,29.18,8,1,8,0.00
2013-10-7,71.0,67.7,61.0,99.9,40.1,-37.6,100,48,1,29.27,29.11,7,1,7,1.52
2013-10-8,63.0,57.9,55.0,59.0,51.6,47.2,100,80,63,29.48,29.27,10,1,10,0.00
2013-10-9,63.0,56.1,52.0,58.4,53.2,25.8,100,91,36,29.47,29.37,10,1,10,0.20
2013-10-10,59.0,54.8,51.0,52.1,31.4,9.7,78,44,16,29.37,29.21,7,1,7,0.05
2013-10-11,67.0,60.0,56.0,67.0,39.4,-7.4,100,61,7,29.24,29.18,5,0,5,0.03
2013-10-12,68.0,62.1,59.0,68.0,50.2,16.7,100,70,20,29.35,29.22,4,0,4,0.02
2013-10-13,65.0,61.0,59.0,99.9,58.8,-41.9,100,39,1,29.49,29.35,4,0,4,0.04
2013-10-14,64.0,59.1,54.0,99.9,70.3,-41.9,100,37,1,29.52,29.45,5,0,5,0.05
2013-10-15,76.0,60.7,50.0,99.9,41.8,-46.8,100,51,1,29.48,29.31,9,0,9,0.00
2013-10-16,73.0,63.4,59.0,66.9,55.2,24.1,100,77,27,29.33,29.21,4,0,4,0.00
2013-10-17,72.0,64.3,58.0,99.9,42.7,-42.5,100,54,1,29.24,29.09,6,0,6,0.01
2013-10-18,78.0,60.8,51.0,61.7,50.9,7.6,100,75,12,29.32,29.13,5,0,5,0.00
2013-10-19,67.0,58.3,53.0,67.0,48.5,25.8,100,72,32,29.26,29.08,4,0,4,0.03
2013-10-20,66.0,52.1,40.0,49.0,33.1,-14.9,100,56,5,29.40,29.17,5,0,5,0.00
2013-10-21,73.0,50.3,34.0,99.9,35.9,-46.8,100,61,5,29.44,29.26,6,0,6,0.00
2013-10-22,69.0,57.0,49.0,62.5,51.3,24.2,100,83,29,29.27,29.07,5,0,5,0.00
2013-10-23,65.0,55.5,43.0,99.9,31.2,-43.8,100,44,1,29.27,28.95,15,2,15,0.19
2013-10-24,57.0,44.8,33.0,41.1,34.7,32.1,100,71,41,29.45,29.27,13,2,13,0.00
2013-10-25,56.0,43.7,34.0,37.7,32.4,26.6,100,68,36,29.63,29.45,9,1,9,0.00
2013-10-26,61.0,42.0,25.0,44.0,31.7,22.9,100,71,36,29.62,29.32,10,1,10,0.00
2013-10-27,69.0,52.4,43.0,46.0,40.2,36.8,100,67,35,29.39,29.30,10,1,10,0.00
2013-10-28,72.0,52.8,40.0,55.4,44.7,17.7,100,77,32,29.52,29.39,4,0,4,0.00
2013-10-29,74.0,58.3,50.0,61.0,50.3,27.1,100,76,39,29.59,29.50,4,0,4,0.00
2013-10-30,73.0,59.1,51.0,99.9,39.9,-44.4,100,58,1,29.55,29.40,4,0,4,0.00
2013-10-31,74.0,61.9,54.0,99.9,61.6,-44.4,100,50,1,29.45,29.17,8,1,8,0.00
2013-11-1,70.0,65.5,60.0,99.9,71.0,-38.9,100,57,1,29.17,28.91,10,2,10,0.18
2013-11-2,70.0,58.9,51.0,99.9,52.0,-43.8,98,36,1,29.20,28.96,12,2,12,0.02
2013-11-3,64.0,49.6,39.0,41.1,37.9,33.7,93,66,39,29.64,29.20,10,1,10,0.00
2013-11-4,56.0,42.9,34.0,36.6,32.5,29.7,94,69,41,29.83,29.64,9,0,9,0.00
2013-11-5,59.0,46.5,34.0,51.5,41.4,31.1,100,83,62,29.81,29.69,6,0,6,0.00
2013-11-6,74.0,55.1,42.0,57.4,48.4,26.9,100,81,34,29.69,29.37,4,0,4,0.00
2013-11-7,68.0,56.9,40.0,99.9,53.3,-43.8,98,46,2,29.38,29.18,13,2,13,0.01
2013-11-8,56.0,43.6,33.0,33.4,28.4,24.2,89,57,33,29.60,29.37,12,2,12,0.00
2013-11-9,57.0,42.2,25.0,43.0,30.7,22.6,100,68,37,29.65,29.43,7,1,7,0.00
2013-11-10,69.0,53.6,38.0,41.5,33.7,25.6,88,51,27,29.51,29.30,18,2,18,0.00
2013-11-11,62.0,45.5,29.0,35.6,29.5,25.7,100,57,28,29.62,29.40,4,0,4,0.00
2013-11-12,58.0,41.3,31.0,39.1,31.4,14.0,100,70,44,29.69,29.31,10,1,10,0.01
2013-11-13,46.0,31.7,21.0,21.4,17.4,14.0,86,58,33,29.80,29.69,10,1,10,0.00
2013-11-14,60.0,39.2,24.0,25.0,21.8,17.8,83,54,24,29.73,29.58,9,1,9,0.00
2013-11-15,62.0,45.8,29.0,50.0,33.6,22.1,100,64,39,29.61,29.47,6,0,6,0.00
2013-11-16,60.0,53.0,48.0,99.9,41.1,-45.6,100,59,1,29.54,29.48,2,0,2,0.02
2013-11-17,67.0,58.6,53.0,99.9,80.4,-40.7,100,34,8,29.49,29.15,6,0,6,0.02
2013-11-18,73.0,62.7,49.0,99.9,56.4,-41.9,97,32,1,29.24,29.06,12,2,12,0.05
2013-11-19,56.0,45.8,37.0,30.5,28.5,26.3,68,52,35,29.59,29.24,10,1,10,0.00
2013-11-20,53.0,41.2,33.0,40.0,31.1,26.6,100,69,46,29.72,29.59,10,1,10,0.00
2013-11-21,57.0,46.3,37.0,47.0,42.2,36.5,100,87,64,29.77,29.65,5,0,5,0.00
2013-11-22,67.0,55.8,43.0,62.3,54.6,39.2,100,96,82,29.67,29.33,9,1,9,0.00
2013-11-23,61.0,53.3,39.0,61.0,39.6,16.0,100,63,30,29.44,29.30,12,2,12,0.00
2013-11-24,40.0,29.8,20.0,22.4,8.4,1.8,74,42,26,29.82,29.44,10,3,10,0.00
2013-11-25,43.0,28.3,13.0,20.0,11.9,6.0,100,57,24,29.87,29.65,6,0,6,0.00
2013-11-26,61.0,39.8,32.0,99.9,49.9,-54.3,100,39,1,29.65,28.87,14,1,14,1.10
2013-11-27,44.0,36.8,26.0,99.9,48.5,-40.8,98,45,2,29.42,28.80,15,4,15,0.60
2013-11-28,47.0,30.2,21.0,24.8,19.3,15.9,95,66,36,29.75,29.42,7,1,7,0.00
2013-11-29,50.0,34.8,25.0,28.8,24.9,23.3,100,71,39,29.91,29.73,6,0,6,0.00
2013-11-30,47.0,32.6,23.0,32.1,27.2,21.8,100,82,54,29.93,29.65,5,0,5,0.00
2013-12-1,61.0,37.3,22.0,41.2,25.1,-11.9,100,66,14,29.65,29.31,7,0,7,0.00
2013-12-2,63.0,42.8,28.0,48.3,35.8,15.8,100,78,47,29.31,29.09,5,0,5,0.00
2013-12-3,56.0,45.1,32.0,99.9,34.8,-42.2,100,72,2,29.27,29.15,7,0,7,0.01
2013-12-4,61.0,53.8,47.0,99.9,44.5,-45.0,100,62,2,29.35,29.25,4,0,4,0.00
2013-12-5,68.0,59.4,53.0,99.9,91.8,-39.5,88,7,1,29.39,29.29,8,1,8,0.10
2013-12-6,76.0,67.2,62.0,99.9,71.9,-39.5,100,59,2,29.31,29.21,15,3,15,0.01
2013-12-7,67.0,45.1,40.0,99.9,30.4,-51.2,100,66,1,29.74,29.24,10,2,10,0.37
2013-12-8,40.0,32.6,30.0,36.2,4.0,-29.0,100,43,6,29.76,29.57,9,1,9,0.28
2013-12-9,42.0,36.9,31.0,99.9,67.3,-58.7,8,1,1,29.57,29.33,4,0,4,0.39
2013-12-10,46.0,39.7,25.0,99.9,68.4,-53.7,100,35,3,29.60,29.20,9,1,9,0.42
2013-12-11,49.0,34.5,23.0,27.8,24.6,20.9,100,72,37,29.72,29.56,7,1,7,0.00
2013-12-15,42.0,34.8,31.0,30.7,29.1,27.5,94,80,64,29.34,29.22,5,0,5,0.00
2013-12-16,56.0,39.9,27.0,37.0,32.2,26.0,100,77,42,29.45,29.33,9,1,9,0.00
2013-12-17,61.0,43.6,31.0,43.2,35.1,20.2,100,75,47,29.39,29.12,20,1,20,0.00
2013-12-18,47.0,37.6,29.0,39.0,22.3,16.7,100,56,33,29.56,29.31,12,2,12,0.00
2013-12-19,63.0,43.9,28.0,29.3,23.5,17.4,72,48,23,29.57,29.45,12,1,12,0.00
2013-12-20,66.0,51.4,39.0,54.9,44.0,27.9,100,77,56,29.51,29.36,10,1,10,0.00
2013-12-21,72.0,58.5,47.0,99.9,46.0,-38.9,100,63,1,29.42,29.28,12,1,12,0.00
2013-12-22,76.0,66.7,61.0,99.9,61.0,22.9,100,55,23,29.35,29.26,12,2,12,0.12
2013-12-23,64.0,57.4,44.0,99.9,80.7,-16.4,96,24,7,29.44,29.26,10,1,10,0.94
2013-12-24,46.0,37.7,24.0,40.4,28.2,12.7,99,70,45,29.74,29.43,12,2,12,0.00
2013-12-25,41.0,26.1,18.0,20.0,13.8,9.8,100,62,32,29.83,29.67,5,0,5,0.00
2013-12-26,52.0,32.6,18.0,29.0,23.9,18.0,100,75,37,29.67,29.50,10,1,10,0.00
2013-12-27,55.0,35.8,23.0,34.2,23.1,18.1,100,65,28,29.73,29.63,4,0,4,0.00
2013-12-28,59.0,42.0,26.0,43.0,28.8,21.4,100,63,32,29.68,29.43,5,0,5,0.02
2013-12-29,54.0,45.3,40.0,99.9,51.6,-53.7,100,47,2,29.43,28.98,14,1,14,1.41
2013-12-30,52.0,43.4,36.0,47.6,32.0,-54.3,95,69,2,29.41,29.19,10,1,10,0.01
2013-12-31,50.0,39.7,32.0,42.5,26.7,11.6,100,62,36,29.62,29.39,12,2,12,0.08
2014-1-1,50.0,37.8,27.0,31.9,26.1,20.6,100,65,37,29.69,29.50,6,0,6,0.00
2014-1-2,46.0,41.1,39.0,99.9,35.2,-53.0,100,54,1,29.50,28.87,17,1,17,0.30